Location: ????????
(55.0559°N, 39.1270°E)
Time: 00:35:37
(UTC+00:00)

Cosmos 2237 Rocket - Pass Details

Date: 15 November 2025
Orbit: 835 x 847 km, 71.0° (Epoch: 12 December)

Event Time Altitude Azimuth Distance (km) Brightness Sun altitude
Exits shadow 03:37:35 12° 264° (W) 2,338 3.9 -11.0°
Maximum altitude 03:42:11 31° 324° (NW) 1,437 3.0 -10.4°
Drops below altitude 10° 03:47:11 10° 26° (NNE) 2,465 4.7 -9.7°
Sets 03:49:55 0° 37° (NE) 3,401 5.6 -9.3°
